Regional Weather Roundup
Issued by NWS

Home | Current Version | Previous Version | Text Only | Print | Product List | Glossary Off
Versions: 1 2 3 4 5 6 7 8 9 10 11 12 13 14 15 16 17 18 19 20 21 22 23 24 25 26 27 28 29 30 31 32 33 34 35 36 37 38 39 40 41 42 43 44 45 46 47 48 49 50

000
ASUS43 KMKX 292111
RWRWI

WISCONSIN REGIONAL WEATHER ROUNDUP
NATIONAL WEATHER SERVICE MILWAUKEE/SULLIVAN WI
400 PM CDT SUN MAY 29 2016

NOTE: "FAIR" INDICATES FEW OR NO CLOUDS BELOW 12,000 FEET WITH NO
SIGNIFICANT WEATHER AND/OR OBSTRUCTIONS TO VISIBILITY.

WIZ001-002-006>008-014>016-023>028-292200-
NORTHWEST WISCONSIN

CITY           SKY/WX    TMP DP  RH WIND       PRES   REMARKS
SUPERIOR ARPT  CLOUDY    70  56  61 NW15G26   29.89R
ASHLAND        CLOUDY    68  56  65 W10G21    29.87R
HAYWARD        PTSUNNY   70  56  61 W9        29.91R
SIREN          PTSUNNY   74  53  47 W14G21    29.92F
CUMBERLAND     PTSUNNY   72  54  53 W17       29.93F
RICE LAKE      MOSUNNY   71  55  55 W10G20    29.94F
CHETEK         MOSUNNY   73  57  57 W13G22    29.93R
LADYSMITH      PTSUNNY   71  56  58 W17G26    29.93S
EAU CLAIRE     MOSUNNY   76  57  51 W15G24    29.92S
MENOMONIE      SUNNY     75  56  51 W15G23    29.94S
NEW RICHMOND   PTSUNNY   75  56  50 W14G20    29.95S
OSCEOLA        MOSUNNY   75  56  51 W14G22    29.96F
$$

WIZ003>005-009-010-017-018-292200-
NORTH CENTRAL WISCONSIN

CITY           SKY/WX    TMP DP  RH WIND       PRES   REMARKS
MANITOWISH WTR NOT AVBL
ARBOR VITAE    CLOUDY    67  60  77 W10G18    29.88S
WOODRUFF       CLOUDY    67  60  77 W10G18    29.88S
RHINELANDER    CLOUDY    70  56  61 W13G26    29.88S
EAGLE RIVER    LGT RAIN  63  56  79 W14G28    29.88R
LAND O LAKES   LGT RAIN  64  59  83 W10G18    29.87R
PHILLIPS       PTSUNNY   70  58  67 W10G22    29.89R
TOMAHAWK       MOSUNNY   67  60  78 W8G17     29.90R
MEDFORD        PTSUNNY   71  60  69 W16G26    29.91F
MERRILL        HVY RAIN  69  60  73 W17       29.91R
$$

WIZ029-030-035-036-043>047-292200-
CENTRAL WISCONSIN

CITY           SKY/WX    TMP DP  RH WIND       PRES   REMARKS
WAUSAU         MOSUNNY   73  59  61 W21G31    29.89S
MOSINEE        PTSUNNY   72  61  68 W13G28    29.92S
MARSHFIELD     PTSUNNY   73  59  61 W16G24    29.92S
STEVENS POINT  PTSUNNY   71  59  66 W13G20    29.93S
WAUPACA        MOSUNNY   74  62  66 W10G17    29.92S
WAUTOMA        MOSUNNY   76  57  51 W22G29    29.92S
WISC RAPIDS    PTSUNNY   78  55  44 NW17G28   29.93S
CAMP DOUGLAS   SUNNY     77  62  61 W22G28    29.93F
$$

WIZ011>013-019>022-031-037>040-048>050-292200-
NORTHEAST WISCONSIN

CITY           SKY/WX    TMP DP  RH WIND       PRES   REMARKS
ANTIGO         PTSUNNY   66  63  89 W10       29.90S
SHAWANO        CLOUDY    73  61  67 W10G17    29.89S
OCONTO         CLOUDY    70  63  77 SW13G24   29.86R
STURGEON BAY   NOT AVBL
GREEN BAY      PTSUNNY   73  62  68 W18       29.89R
MANITOWOC      CLOUDY    73  61  65 W16       29.91R
APPLETON       PTSUNNY   72  57  60 W18       29.90S
CLINTONVILLE   PTSUNNY   72  59  64 W20G26    29.89S
OSHKOSH        MOSUNNY   74  60  61 W8G16     29.91S
$$

WIZ032>034-041-042-053>061-292200-
SOUTHWEST WISCONSIN

CITY           SKY/WX    TMP DP  RH WIND       PRES   REMARKS
LA CROSSE      PTSUNNY   81  56  42 W18       29.94F HX  81
SPARTA         PTSUNNY   79  55  44 W14G23    29.95S
VIROQUA        MOSUNNY   71  60  66 W9        29.98F
BOSCOBEL       PTSUNNY   81  59  47 W12G18    29.97F HX  81
PRAIRIE DU CHI MOSUNNY   79  54  41 W14G25    29.98S
PLATTEVILLE    MOSUNNY   79  60  51 W20       30.00F HX  80
$$

WIZ056-057-062-063-064-067-068-292200-
SOUTH CENTRAL WISCONSIN

CITY           SKY/WX    TMP DP  RH WIND       PRES   REMARKS
REEDSBURG      CLOUDY    76  59  55 W15       29.95F
BARABOO/DELLS  CLOUDY    77  53  43 W9G21     29.95S
LONE ROCK      SUNNY     80  57  45 W17G25    29.96F HX  80
MINERAL POINT  MOSUNNY   77  57  50 W15       29.98F
MADISON        MOSUNNY   79  56  45 W12G18    29.95F HX  80
MIDDLETON      MOSUNNY   78  57  48 W15G22    29.96F
WATERTOWN      MOSUNNY   77  57  50 W14G23    29.95F
MONROE         MOSUNNY   77  54  44 W21       29.99F
JANESVILLE     PTSUNNY   79  57  47 W12G17    29.97F HX  80
$$

WIZ051-052-058>065-066-070>072-292200-
SOUTHEAST WISCONSIN

CITY           SKY/WX    TMP DP  RH WIND       PRES   REMARKS
MILWAUKEE      PTSUNNY   80  57  45 W20G26    29.95S HX  80
WAUKESHA       PTSUNNY   73  55  53 W12G23    29.96F
MILWAUKEE/TIMM MOSUNNY   79  54  41 W16G23    29.95F
RACINE         MOSUNNY   78  56  46 W18G24    29.97S
BURLINGTON     MOSUNNY   77  55  45 W17       29.97S
KENOSHA        MOSUNNY   79  59  50 W20G25    29.96F HX  80
FOND DU LAC    MOSUNNY   77  59  53 W17G23    29.92S
SHEBOYGAN      MOSUNNY   75  60  59 W17G23    29.92S
WEST BEND      PTSUNNY   77  55  47 W18G28    29.93F
JUNEAU         PTSUNNY   74  57  55 SW22      29.96S
$$

LSZ147-162-292200-
LAKE SUPERIOR

STATION/POSITION TIME  TEMP    WIND        PRES    WAVE
                       AIR SEA DIR/SP/G            HT/PER
                 (UTC) (F)     (DEG/KT/KT) (MB)    (FT/S)
W MID LAKE BUOY  2050   46 38  250/ 16/ 17 1008.7F   2/ 3
DEVILS ISLAND    2100   53     240/ 18/ 21 1010.4R
PORT WING        1840   61     260/ 14/ 21 1010.8
SAXON HARBOR     2000   67     270/  7/ 17 1010.2R
$$

LMZ867-665-643>646-292200-
LAKE MICHIGAN

STATION/POSITION TIME  TEMP    WIND        PRES    WAVE
                       AIR SEA DIR/SP/G            HT/PER
                 (UTC) (F)     (DEG/KT/KT) (MB)    (FT/S)
CHAMBERS ISLAND  2000   69     180/  8/ 15 1010.5S
N MID LAKE BUOY  2050   51 48  190/ 16/ 17 1010.6F   3/ 5
NORTHPORT PIER   2030          230/  5/ 16 1010.5S
KEWAUNEE LAKESHO 2000   71     220/  9/ 17 1011.5R
SHEBOYGAN LAKESH 2100   74     250/ 10/ 12 1013.0F
PORT WASHINGTON  2000   79     240/ 11/ 21 1014.2S
S MID LAKE BUOY  2050   58 51  180/ 10/ 12 1014.6F   1
KENOSHA   LAKESH 2100   78     250/ 17/ 22 1014.2F
$$

TC  - TEMPERATURE IN CELSIUS
VSB - VISIBILITY IN STATUTE MILES
WCI - WIND CHILL INDEX
HX  - HEAT INDEX





USA.gov is the U.S. government's official web portal to all federal, state and local government web resources and services.